Flag for U.S.A. Weather past 2 weeks in Oceanside, California, U.S.A.

Now
68 °F

Clear.


Feels Like: 68 °F
Forecast: 67 / 79 °F
Wind: No wind

Location: Oceanside Weather Reporting Station

Current Time: Jul 1, 2015 at 12:21:04 AM

Latest Report: Jun 30, 2015 at 11:52 PM


Visibility: 8 mi

Pressure: 29.86 "Hg

Humidity: 87%

Dew point: 64 °F

Location of OceansideLocation

Historic Weather in Oceanside — Graph

°F

Oceanside temperature yesterday

Maximum temperature yesterday: 88 °F (at 6:52 PM)
Minimum temperature yesterday: 63 °F (at 1:52 AM)
Average temperature yesterday: 72 °F

Past Weeks' High & Low Weather Summary

 TemperatureHumidityPressure
High88 °F (Jun 30, 6:52 PM)97% (Jun 19, 6:52 AM)30.02 "Hg (Jun 19, 6:52 AM)
Low58 °F (Jun 17, 11:52 PM)48% (Jun 30, 6:52 PM)29.78 "Hg (Jun 30, 6:52 PM)
Average68 °F77%29.90 "Hg
* Reported Jun 15 10:52 PM — Jun 30 10:52 PM, Oceanside, Weather by CustomWeather, © 2015

Note: Actual official high and low records may vary slightly from our data, if they occured in-between our weather recording intervals... More about our weather records

Advertising

Oceanside weather history for previous 24 hours

 ConditionsComfort  
Time TempWeatherWind HumidityBarometerVisibility
10:52 PM
Tue, Jun 30
70 °FClear.No wind84%29.85 "Hg8 mi
8:52 PM71 °FSunny.6 mph84%29.81 "Hg8 mi
7:52 PM73 °FSunny.9 mph81%29.79 "Hg7 mi
6:52 PM88 °FSunny.No wind48%29.78 "Hg10 mi
5:52 PM87 °FSunny.5 mph55%29.79 "Hg10 mi
4:52 PM80 °FSunny.6 mph71%29.81 "Hg10 mi
3:52 PM72 °FScattered clouds.3 mph84%29.87 "Hg8 mi
2:52 PM73 °FThundershowers. Partly sunny.7 mph74%29.99 "Hg9 mi
1:52 PM75 °FScattered clouds.12 mph69%29.93 "Hg9 mi
12:52 PM75 °FSunny.8 mph69%29.90 "Hg9 mi
11:52 AM78 °FSunny.6 mph62%29.89 "Hg9 mi
10:52 AM76 °FSunny.8 mph67%29.88 "Hg9 mi
9:52 AM77 °FSunny.9 mph64%29.88 "Hg8 mi
8:52 AM74 °FSunny.No wind69%29.88 "Hg8 mi
7:52 AM71 °FPartly sunny.No wind76%29.89 "Hg8 mi
6:52 AM67 °FLow clouds.No wind85%29.88 "Hg7 mi
5:52 AM63 °FLow clouds.No wind90%29.88 "Hg7 mi
4:52 AM64 °FPassing clouds.No wind90%29.86 "Hg7 mi
3:52 AM63 °FLow clouds.No wind90%29.86 "Hg7 mi
2:52 AM63 °FClear.No wind90%29.87 "Hg8 mi
1:52 AM63 °FClear.No wind90%29.87 "Hg8 mi
12:52 AM65 °FClear.No wind85%29.88 "Hg8 mi
Weather by CustomWeather, © 2015

See weather overviewHow to use our weather pages